Location: Creta
(46.1663°N, 7.4285°E)
Time: 14:30:55
(UTC+00:00)

Daily predictions for brighter satellites

Satellite Brightness Start Highest point End
(mag) Time Altitude Azimuth Time Altitude Azimuth Time Altitude Azimuth
BREEZE-M DEB (TANK) 4.3 17:34:16 10° SSW 17:37:38 44° SE 17:48:22 10° ENE
Cosmos 2237 4.4 17:44:01 10° S 17:49:31 51° ESE 17:55:03 10° NE
Okean 1 3.4 17:45:32 10° N 17:49:33 59° E 17:53:32 10° SSE
Helios 1A Rocket 3.8 17:46:44 10° SE 17:50:15 29° ENE 17:53:45 10° N
Meteor 1-20 Rocket 4.2 17:48:08 10° S 17:53:35 89° WNW 17:59:09 10° N
ATLAS 5 CENTAUR R/B 4.4 17:40:26 10° WSW 17:55:26 49° NW 17:59:36 10° NNE
CSL-04 Rocket 4.2 17:50:22 10° SE 17:55:28 40° ENE 18:00:33 10° N
Cosmos 1844 Rocket 2.9 17:50:19 10° NNW 17:55:46 52° ENE 18:01:10 10° SE
Okean O Rocket 3.7 17:52:47 10° SSW 17:56:40 32° W 18:00:37 10° NNW
Cosmos 1666 4.0 17:56:08 10° SE 17:58:49 19° E 18:01:31 10° NE
Cosmos 1933 Rocket 4.1 17:55:01 10° SSE 17:59:02 37° E 18:03:05 10° NNE
Cosmos 1666 Rocket 4.0 17:56:13 10° SSW 18:00:31 66° W 18:04:50 10° N
SL-4 R/B 2.3 17:59:28 10° WNW 18:02:53 41° NNE 18:05:57 11° E
Cosmos 1862 Rocket 3.6 17:58:37 10° N 18:03:08 90° ESE 18:07:36 10° S
Gbstr 26 Del rocket 4.0 17:59:52 10° WNW 18:04:03 43° N 18:09:07 10° ENE
CZ-4 R/B 1.3 18:04:39 10° SSE 18:08:31 89° WSW 18:12:28 10° NNW
OBJECT-B 3.0 18:08:21 10° ENE 18:08:31 10° ENE 18:09:03 10° NE
Aureole 2 Rocket 1.8 18:07:09 10° NNW 18:09:39 70° WSW 18:12:06 10° SSE
Cosmos 44 Rocket 4.2 18:04:46 10° NW 18:09:54 56° WSW 18:14:57 10° SSE
Cosmos 2360 Rocket 2.2 18:07:09 10° SSW 18:12:43 65° ESE 18:18:21 10° NNE
Cosmos 1844 3.8 18:08:23 10° NNW 18:14:07 60° ENE 18:19:44 10° SE
USA 305 4.3 18:10:32 10° WNW 18:14:16 28° N 18:17:56 10° ENE
Meteor 1-5 Rocket 4.4 18:09:42 10° SSE 18:14:45 43° E 18:19:58 10° NNE
SeaSat 1 3.0 18:11:38 10° NE 18:16:13 37° ESE 18:20:46 10° S
USA 234 4.1 18:11:54 10° ENE 18:17:29 29° SE 18:23:03 10° S
Cosmos 1500 3.0 18:14:00 10° S 18:17:41 67° E 18:21:25 10° NNE
YAOGAN 1 2.6 18:13:24 10° SSE 18:17:43 84° WSW 18:22:05 10° NNW
Cosmos 2278 Rocket 3.7 18:14:00 10° N 18:18:03 20° NE 18:21:02 14° E
Cosmos 1992 Rocket 4.1 18:13:17 10° SSW 18:18:31 81° WNW 18:23:47 10° NNE
CZ-2C R/B 4.5 18:13:18 10° S 18:18:46 46° W 18:24:02 10° NNW
Cosmos 2242 Rocket 3.7 18:14:29 10° N 18:18:54 53° ENE 18:23:15 10° SSE
SL-08 RB Rocket 3.8 18:17:35 10° SSE 18:22:00 55° ENE 18:26:29 10° N
Cosmos 1689 Rocket 1.8 18:19:48 10° NNE 18:22:41 72° ESE 18:25:34 10° S
COSMO-SKYMED 1 4.2 18:22:07 10° N 18:26:08 38° WNW 18:30:09 10° SW
USA 307 4.3 18:22:52 10° WNW 18:26:37 28° N 18:29:44 13° ENE
Nadezhda 3 Rocket 4.3 18:21:54 10° NNW 18:28:17 75° W 18:34:37 10° S
ATLAS CENTAUR R/B 1.2 18:24:52 10° SW 18:28:28 74° NW 18:32:09 10° NNE
USA 306 4.3 18:25:27 10° WNW 18:29:12 28° N 18:32:10 14° ENE
Okean 1-7 3.1 18:25:15 10° N 18:29:35 56° ENE 18:33:49 10° SSE
Cosmos 2333 Rocket 2.6 18:24:36 10° S 18:29:50 39° ESE 18:35:07 10° NE
SJ 16-02 2.8 18:28:47 10° N 18:31:59 19° NE 18:32:58 18° ENE
Meteor 2-4 Rocket 3.8 18:26:06 10° N 18:32:00 83° E 18:37:56 10° SSE
FALCON 9 DEB 3.5 18:30:05 10° WNW 18:33:28 60° SW 18:35:55 17° SE
GP-B 3.0 18:29:32 10° SSE 18:33:56 67° E 18:38:21 10° N
Cosmos 2154 Rocket 4.4 18:30:06 10° SSW 18:36:15 67° W 18:42:27 10° N
USA 308 4.3 18:33:37 10° WNW 18:37:22 28° N 18:39:59 16° NE
Cosmos 2322 Rocket 3.3 18:38:55 10° SW 18:44:16 45° WNW 18:49:41 10° NNE
H-2A R/B 3.2 18:40:22 10° S 18:45:37 48° W 18:50:53 10° NNW
BREEZE-M DEB (TANK) 2.6 18:44:31 10° WNW 18:46:55 49° N 18:49:08 24° ENE
NOSS 3-2 (A) 4.2 18:43:07 10° SSE 18:47:38 26° ESE 18:48:59 24° E
CZ-4B R/B 4.4 18:46:35 10° NNW 18:48:32 16° WNW 18:50:29 10° WSW
HJ-1C 4.5 18:46:10 10° S 18:49:22 46° W 18:52:34 10° NNW
MetOp-A 4.1 18:46:08 10° SSE 18:51:24 62° ENE 18:56:42 10° N
Cosmos 1869 Rocket 3.5 18:49:24 10° S 18:53:40 59° E 18:58:01 10° NNE
SAR-Lupe-4 4.4 18:50:43 10° N 18:54:12 51° WNW 18:57:41 10° SSW
Okean 3 3.5 18:53:47 10° N 18:58:00 56° ENE 19:00:22 24° SSE
Cosmos 2219 Rocket 2.2 18:53:07 10° S 18:58:35 58° ESE 19:04:05 10° NNE
FALCON 9 DEB 4.0 18:56:14 10° NW 18:59:09 32° NNE 18:59:29 31° NNE
BREEZE-M DEB (TANK) 1.8 18:54:52 10° WSW 18:59:26 73° SSE 18:59:56 54° E
ARGOS 4.0 18:54:28 10° S 18:59:44 52° W 19:05:03 10° NNW
DMSP B5D2-2 3.9 18:54:52 10° NNE 19:00:06 70° ESE 19:05:17 10° S
COSMOS 2428 2.8 18:54:51 10° S 19:00:18 50° ESE 19:05:48 10° NE
Cosmos 1777 Rocket 3.9 18:57:19 10° NNW 19:02:36 86° ENE 19:06:53 16° SSE
SL-8 Rocket 3.9 18:57:32 10° S 19:03:46 84° E 19:10:00 10° N
CENTAUR R/B 4.0 19:03:32 10° SSE 19:04:50 15° SSE 19:04:50 15° SSE
FALCON 9 DEB 3.8 19:06:50 10° NW 19:09:41 37° NNE 19:09:41 37° NNE
Ariane Rocket 3.0 19:07:29 29° SE 19:09:57 58° ENE 19:14:57 10° N
SL-16 R/B 4.3 19:06:03 10° WSW 19:10:45 26° NW 19:15:29 10° N
CZ-2C R/B 3.1 19:06:07 10° N 19:11:32 64° WNW 19:16:48 10° SSW
Cosmos 192 4.3 19:06:52 10° SSW 19:11:46 87° WNW 19:16:44 10° NNE
SJ-6B 2.7 19:10:35 35° SSE 19:12:13 75° ENE 19:16:16 10° N
Meteor 1-23 Rocket 4.3 19:07:37 10° N 19:13:07 55° ENE 19:15:29 33° SE
USA 186 3.1 19:15:49 26° NNW 19:15:49 26° NNW 19:17:09 10° NNW
SPOT 3 Rocket 4.2 19:16:41 35° ENE 19:16:46 35° ENE 19:21:29 10° N
Cosmos 1066 Rocket 4.2 19:11:33 10° N 19:17:19 77° ENE 19:21:41 19° SSE
ERS-2 4.4 19:15:55 10° N 19:19:00 26° WNW 19:22:04 10° SW
Cosmos 2366 rocket 4.0 19:13:45 10° S 19:20:05 89° E 19:26:29 10° N
Meteor 1-11 Rocket 3.6 19:15:24 10° S 19:21:06 88° ESE 19:26:45 10° NNE
Abrixas rocket 3.8 19:19:48 10° WNW 19:21:02 25° WNW 19:21:02 25° WNW
Cosmos 1378 3.0 19:19:23 10° N 19:23:01 82° NE 19:23:01 82° NE
MOS 1 4.2 19:21:36 27° SSE 19:24:52 78° ENE 19:30:34 10° NNW
Cosmos 2322 3.9 19:19:10 10° SSW 19:24:52 73° WNW 19:30:37 10° NNE
Lacrosse 4 Rocket 1.5 19:20:49 10° SW 19:25:13 80° WNW 19:28:07 22° NNE
SL-08 R/B 4.5 19:19:34 10° S 19:25:54 63° E 19:32:18 10° NNE
Cosmos 1238 Rocket 4.2 19:22:46 10° S 19:29:14 26° NNE 19:30:52 10° NNE
Meteor 2-20 4.3 19:21:26 10° N 19:27:32 69° E 19:30:23 33° SSE
Cosmos 2221 Rocket 3.5 19:26:44 10° N 19:30:56 67° ENE 19:30:56 67° ENE
NOSS 0 Rocket 4.2 19:27:13 10° S 19:39:45 - NE 19:32:12 45° SE
ASTEX 1 3.3 19:28:21 10° N 19:33:16 86° W 19:38:08 10° S
DELTA 2 R/B (1) 4.3 19:28:25 10° SW 19:33:16 34° SSE 19:33:16 34° SSE
Cosmos 1536 3.0 19:29:45 10° SSW 19:33:44 70° W 19:37:43 10° N
OBJECT-B 2.4 19:41:24 34° NW 19:41:24 34° NW 19:43:29 10° NNW
SL-4 R/B 2.9 19:39:07 10° WNW 19:41:32 38° W 19:41:32 38° W
Cosmos 1727 Rocket 4.0 19:37:24 10° N 19:43:37 83° W 19:47:28 25° S
Cosmos 1821 Rocket 3.9 19:44:20 54° SE 19:45:26 63° E 19:51:31 10° NNE
Gbstr 26 Del rocket 3.7 19:46:49 10° WNW 19:51:38 59° NNE 19:51:52 58° NNE
Cosmos 1000 Rocket 4.4 19:47:11 10° N 19:53:28 71° E 19:54:04 67° ESE
SeaSat 1 3.9 19:49:12 10° NNE 19:53:42 36° NW 19:58:10 10° WSW
USA 305 4.0 19:50:53 10° NW 19:54:02 37° NNW 19:54:02 37° NNW
Cosmos 2360 Rocket 4.3 19:52:37 10° WSW 19:57:12 25° NW 20:01:51 10° N
Resurs 01 Rocket 2.8 19:59:18 36° N 19:59:18 36° N 20:01:57 10° N
USA 234 3.1 19:58:30 42° NE 20:01:00 88° NW 20:07:33 10° SW
Cosmos 2278 Rocket 2.1 19:57:14 10° NNW 20:02:54 88° W 20:02:54 88° W
USA 238 DEB 3.5 20:00:29 10° SSW 20:06:33 72° SSE 20:06:33 72° SSE
USA 238 3.5 20:00:34 10° SSW 20:06:34 70° SSE 20:06:34 70° SSE
USA 307 4.4 20:03:11 10° NW 20:05:52 33° NNW 20:05:52 33° NNW
ATLAS CENTAUR R/B 4.1 20:06:26 10° WNW 20:08:01 12° NNW 20:09:31 10° N
Cosmos 2123 Rocket 4.4 20:02:32 10° N 20:07:27 49° NE 20:07:27 49° NE
USA 306 4.4 20:05:41 10° NW 20:08:17 33° NNW 20:08:17 33° NNW
SJ 16-02 2.4 20:06:35 10° NNW 20:09:59 43° WNW 20:09:59 43° WNW
Cosmos 1943 Rocket 3.8 20:08:07 10° N 20:11:08 22° NNE 20:11:08 22° NNE
Cosmos 2333 Rocket 3.6 20:08:52 10° WSW 20:14:07 37° NW 20:19:27 10° NNE
BREEZE-M DEB (TANK) 4.2 20:14:00 10° WNW 20:25:44 64° SW 20:25:44 64° SW
Cosmos 1898 Rocket 4.5 20:22:56 10° NNW 20:26:23 43° NNW 20:26:23 43° NNW
NOSS 3-2 (A) 4.0 20:32:12 10° SW 20:36:35 51° W 20:36:35 51° W
Cosmos 2219 Rocket 4.1 20:38:13 10° WSW 20:42:54 27° NW 20:47:39 10° N
COSMOS 2428 4.4 20:39:51 10° WSW 20:44:50 30° NW 20:49:51 10° N
Lacrosse 4 Rocket 4.4 21:02:06 10° WNW 21:04:34 15° NW 21:04:34 15° NW
Cosmos 2369 Rocket 4.3 21:00:49 10° NNW 21:02:38 19° N 21:02:38 19° N
